Location: Misciano
(43.5000°N, 11.9500°E)
Time: 03:42:03
(UTC+00:00)

MetOp-B - Pass Details

Date: 13 August 2020
Orbit: 818 x 822 km, 98.7° (Epoch: 19 September)

Event Time Altitude Azimuth Distance (km) Brightness Sun altitude
Exits shadow 20:22:39 25° 182° (S) 1,610 5.3 -19.8°
Maximum altitude 20:25:48 66° 258° (WSW) 899 4.4 -20.2°
Drops below altitude 10° 20:31:09 10° 341° (NNW) 2,428 7.5 -20.9°
Sets 20:33:32 0° 344° (NNW) 3,365 8.4 -21.2°
